Radiation Dose at Monitoring Post of Fukushima Daini Nuclear Power Station
Date,Time,MP-1(microSv/h),MP-2(microSv/h),MP-3(microSv/h),MP-4(microSv/h),MP-5(microSv/h),MP-6(microSv/h),MP-7(microSv/h),Wind Direction,Wind Velocity(m/s),Rain
2019/06/25,00:00,0.186,0.168,0.282,0.263,0.262,0.140,0.087,-,CALM,No
2019/06/25,00:10,0.186,0.168,0.281,0.264,0.266,0.139,0.087,northwest,1.3,No
2019/06/25,00:20,0.186,0.167,0.282,0.262,0.262,0.140,0.088,north,1.6,No
2019/06/25,00:30,0.187,0.170,0.280,0.263,0.265,0.140,0.087,-,CALM,No
2019/06/25,00:40,0.187,0.168,0.282,0.263,0.263,0.140,0.086,-,CALM,No
2019/06/25,00:50,0.186,0.168,0.280,0.265,0.266,0.140,0.087,-,CALM,No
2019/06/25,01:00,0.187,0.167,0.281,0.262,0.263,0.139,0.087,-,CALM,No
2019/06/25,01:10,0.187,0.169,0.280,0.264,0.265,0.140,0.087,-,CALM,No
2019/06/25,01:20,0.187,0.167,0.282,0.262,0.262,0.140,0.087,west,0.7,No
2019/06/25,01:30,0.187,0.168,0.281,0.264,0.265,0.140,0.087,-,CALM,No
2019/06/25,01:40,0.186,0.169,0.281,0.262,0.263,0.141,0.088,west-northwest,1.2,No
2019/06/25,01:50,0.187,0.168,0.283,0.265,0.265,0.141,0.088,-,CALM,No
2019/06/25,02:00,0.187,0.169,0.279,0.263,0.263,0.140,0.088,northeast,0.7,No
2019/06/25,02:10,0.188,0.169,0.283,0.265,0.265,0.140,0.087,-,CALM,No
2019/06/25,02:20,0.188,0.168,0.282,0.264,0.262,0.140,0.087,-,CALM,No
2019/06/25,02:30,0.189,0.168,0.282,0.266,0.266,0.140,0.087,northeast,0.7,No
2019/06/25,02:40,0.186,0.169,0.280,0.264,0.263,0.140,0.088,north,0.9,No
2019/06/25,02:50,0.189,0.169,0.282,0.265,0.265,0.141,0.088,north,0.9,No
2019/06/25,03:00,0.187,0.170,0.280,0.263,0.264,0.140,0.088,east-northeast,0.8,No
2019/06/25,03:10,0.188,0.169,0.282,0.265,0.264,0.140,0.087,southeast,0.6,No
2019/06/25,03:20,0.187,0.168,0.281,0.263,0.262,0.140,0.088,south-southeast,1.0,No
2019/06/25,03:30,0.187,0.168,0.282,0.264,0.265,0.140,0.087,south,1.7,No
2019/06/25,03:40,0.187,0.168,0.281,0.263,0.263,0.139,0.087,south-southwest,1.5,No
2019/06/25,03:50,0.188,0.168,0.283,0.265,0.264,0.141,0.088,south-southwest,2.1,No
2019/06/25,04:00,0.187,0.168,0.280,0.264,0.263,0.140,0.088,south-southwest,1.8,No
2019/06/25,04:10,0.187,0.170,0.281,0.265,0.265,0.142,0.088,south-southwest,3.4,No
2019/06/25,04:20,0.187,0.169,0.281,0.265,0.264,0.141,0.088,south,2.7,No
2019/06/25,04:30,0.187,0.168,0.282,0.265,0.266,0.141,0.087,south,1.9,No
2019/06/25,04:40,0.187,0.168,0.281,0.264,0.265,0.140,0.088,south-southwest,2.0,No
2019/06/25,04:50,0.188,0.168,0.282,0.265,0.265,0.140,0.088,south-southeast,2.6,No
2019/06/25,05:00,0.189,0.169,0.282,0.265,0.263,0.140,0.088,south-southeast,2.0,No
2019/06/25,05:10,0.188,0.169,0.282,0.264,0.267,0.141,0.088,south,1.9,No
2019/06/25,05:20,0.188,0.169,0.283,0.265,0.263,0.140,0.088,south-southeast,1.4,No
2019/06/25,05:30,0.187,0.169,0.282,0.264,0.264,0.140,0.088,south-southeast,0.7,No
2019/06/25,05:40,0.188,0.169,0.283,0.265,0.263,0.140,0.088,-,CALM,No
2019/06/25,05:50,0.188,0.168,0.281,0.265,0.265,0.140,0.088,southeast,0.8,No
2019/06/25,06:00,0.189,0.169,0.283,0.265,0.264,0.141,0.088,south-southeast,1.2,No
2019/06/25,06:10,0.188,0.170,0.282,0.264,0.264,0.140,0.088,southeast,0.8,No
2019/06/25,06:20,0.189,0.170,0.282,0.266,0.264,0.141,0.088,south,0.9,No
2019/06/25,06:30,0.187,0.168,0.281,0.265,0.264,0.141,0.088,south,0.8,No
2019/06/25,06:40,0.188,0.169,0.282,0.265,0.265,0.140,0.087,south-southwest,1.8,No
2019/06/25,06:50,0.187,0.170,0.281,0.265,0.261,0.140,0.087,south-southwest,1.4,No
2019/06/25,07:00,0.188,0.168,0.282,0.263,0.266,0.140,0.087,south,2.5,No
2019/06/25,07:10,0.187,0.169,0.282,0.266,0.263,0.140,0.087,south-southeast,1.9,No
2019/06/25,07:20,0.187,0.167,0.280,0.264,0.263,0.140,0.087,south,2.2,No
2019/06/25,07:30,0.187,0.168,0.281,0.265,0.264,0.139,0.087,south-southeast,2.1,No
2019/06/25,07:40,0.185,0.167,0.279,0.262,0.262,0.139,0.087,south-southwest,2.0,No
2019/06/25,07:50,0.187,0.166,0.283,0.262,0.263,0.140,0.088,south-southeast,2.5,No
2019/06/25,08:00,0.187,0.168,0.281,0.264,0.264,0.139,0.086,south,2.7,No
2019/06/25,08:10,0.185,0.167,0.279,0.262,0.261,0.141,0.087,south-southeast,3.1,No
2019/06/25,08:20,0.187,0.168,0.283,0.262,0.259,0.140,0.086,south-southeast,3.1,No
2019/06/25,08:30,0.187,0.166,0.280,0.264,0.264,0.140,0.086,south-southeast,3.1,No
2019/06/25,08:40,0.186,0.166,0.280,0.263,0.264,0.139,0.086,south-southeast,3.4,No
2019/06/25,08:50,0.186,0.167,0.278,0.262,0.261,0.140,0.085,south-southeast,3.5,No
2019/06/25,09:00,0.188,0.168,0.278,0.262,0.262,0.140,0.086,southeast,3.1,No
2019/06/25,09:10,0.187,0.169,0.281,0.262,0.261,0.140,0.087,south-southeast,4.2,No
2019/06/25,09:20,0.186,0.169,0.282,0.263,0.263,0.140,0.088,south-southeast,3.8,No
2019/06/25,09:30,0.186,0.168,0.280,0.263,0.266,0.140,0.088,south-southeast,4.1,No
2019/06/25,09:40,0.185,0.166,0.280,0.262,0.265,0.141,0.087,south-southeast,3.5,No
2019/06/25,09:50,0.184,0.166,0.281,0.263,0.263,0.140,0.087,southeast,3.0,No
2019/06/25,10:00,0.187,0.167,0.283,0.262,0.263,0.140,0.087,south-southeast,2.3,No
2019/06/25,10:10,0.187,0.167,0.281,0.261,0.265,0.140,0.086,south-southeast,2.1,No
2019/06/25,10:20,0.187,0.167,0.280,0.263,0.262,0.141,0.088,south-southeast,2.4,No
2019/06/25,10:30,0.187,0.169,0.280,0.263,0.261,0.141,0.087,southeast,2.2,No
2019/06/25,10:40,0.187,0.167,0.279,0.264,0.263,0.141,0.087,southeast,2.3,No
2019/06/25,10:50,0.186,0.169,0.278,0.263,0.267,0.142,0.087,southeast,1.7,No
2019/06/25,11:00,0.186,0.168,0.280,0.265,0.267,0.140,0.088,east-southeast,2.3,No
2019/06/25,11:10,0.186,0.167,0.280,0.263,0.265,0.140,0.088,southeast,1.8,No
2019/06/25,11:20,0.186,0.168,0.281,0.262,0.266,0.141,0.088,southeast,1.9,No
2019/06/25,11:30,0.186,0.171,0.282,0.263,0.263,0.140,0.087,southeast,1.9,No
2019/06/25,11:40,0.186,0.170,0.286,0.264,0.264,0.141,0.088,southeast,4.0,No
2019/06/25,11:50,0.186,0.169,0.283,0.265,0.263,0.142,0.087,south-southeast,4.0,No
2019/06/25,12:00,0.186,0.169,0.283,0.264,0.263,0.141,0.087,south-southeast,5.1,No
2019/06/25,12:10,0.186,0.168,0.283,0.265,0.264,0.142,0.088,southeast,4.9,No
2019/06/25,12:20,0.186,0.169,0.283,0.265,0.264,0.141,0.088,south-southeast,4.9,No
2019/06/25,12:30,0.187,0.167,0.282,0.265,0.264,0.142,0.089,south,4.9,No
2019/06/25,12:40,0.189,0.171,0.280,0.268,0.268,0.142,0.088,south-southeast,5.1,No
2019/06/25,12:50,0.191,0.170,0.286,0.267,0.268,0.141,0.088,south,4.8,No
2019/06/25,13:00,0.188,0.169,0.286,0.267,0.266,0.141,0.087,south-southeast,4.6,No
2019/06/25,13:10,0.189,0.169,0.283,0.264,0.265,0.141,0.088,south-southeast,4.5,No
2019/06/25,13:20,0.186,0.168,0.282,0.264,0.264,0.142,0.088,south-southeast,4.5,No
2019/06/25,13:30,0.186,0.169,0.281,0.265,0.265,0.143,0.088,south-southeast,4.6,No
2019/06/25,13:40,0.187,0.168,0.282,0.268,0.264,0.141,0.088,south-southeast,3.7,No
2019/06/25,13:50,0.186,0.169,0.282,0.267,0.265,0.141,0.087,south-southeast,4.2,No
2019/06/25,14:00,0.186,0.169,0.282,0.267,0.264,0.141,0.087,southeast,4.8,No
2019/06/25,14:10,0.187,0.168,0.283,0.266,0.264,0.141,0.087,south-southeast,4.4,No
2019/06/25,14:20,0.188,0.169,0.280,0.265,0.265,0.142,0.087,south-southeast,4.2,No
2019/06/25,14:30,0.186,0.169,0.281,0.264,0.265,0.141,0.087,south-southeast,4.3,No
2019/06/25,14:40,0.186,0.172,0.282,0.264,0.265,0.142,0.087,south-southeast,4.8,No
2019/06/25,14:50,0.187,0.170,0.282,0.263,0.264,0.141,0.087,south-southeast,4.2,No
2019/06/25,15:00,0.187,0.170,0.283,0.267,0.265,0.141,0.088,south-southeast,4.2,No
2019/06/25,15:10,0.187,0.170,0.282,0.269,0.265,0.142,0.088,south-southeast,4.6,No
2019/06/25,15:20,0.188,0.169,0.284,0.267,0.265,0.143,0.088,south-southeast,4.1,No
2019/06/25,15:30,0.189,0.170,0.288,0.265,0.265,0.142,0.088,south-southeast,5.2,No
2019/06/25,15:40,0.189,0.171,0.287,0.268,0.264,0.142,0.087,south-southeast,5.2,No
2019/06/25,15:50,0.190,0.170,0.287,0.269,0.264,0.142,0.089,south-southeast,5.1,No
2019/06/25,16:00,0.188,0.169,0.283,0.265,0.264,0.142,0.088,south-southeast,4.8,No
2019/06/25,16:10,0.187,0.170,0.282,0.268,0.265,0.142,0.087,south-southeast,5.1,No
2019/06/25,16:20,0.186,0.172,0.286,0.268,0.266,0.143,0.088,south-southeast,5.1,No
2019/06/25,16:30,0.187,0.171,0.287,0.265,0.265,0.143,0.088,south-southeast,5.4,No
2019/06/25,16:40,0.188,0.170,0.285,0.267,0.263,0.142,0.088,south-southeast,5.6,No
2019/06/25,16:50,0.186,0.171,0.287,0.269,0.265,0.141,0.089,south-southeast,5.7,No
2019/06/25,17:00,0.188,0.169,0.286,0.266,0.266,0.142,0.088,south-southeast,5.9,No
2019/06/25,17:10,0.189,0.170,0.285,0.269,0.265,0.143,0.087,south-southeast,6.8,No
2019/06/25,17:20,0.188,0.170,0.286,0.267,0.270,0.143,0.089,south-southeast,6.8,No
2019/06/25,17:30,0.187,0.169,0.286,0.266,0.271,0.141,0.088,south-southeast,6.4,No
2019/06/25,17:40,0.190,0.171,0.283,0.268,0.266,0.143,0.088,south-southeast,6.3,No
2019/06/25,17:50,0.189,0.170,0.286,0.268,0.265,0.141,0.089,south,6.6,No
2019/06/25,18:00,0.187,0.169,0.285,0.267,0.267,0.142,0.088,south-southeast,6.5,No
2019/06/25,18:10,0.187,0.170,0.285,0.268,0.270,0.143,0.089,south-southeast,6.2,No
2019/06/25,18:20,0.189,0.169,0.286,0.266,0.267,0.141,0.088,south-southeast,6.3,No
2019/06/25,18:30,0.188,0.172,0.282,0.268,0.266,0.143,0.088,south-southeast,7.0,No
2019/06/25,18:40,0.187,0.170,0.286,0.267,0.270,0.142,0.088,south-southeast,5.9,No
2019/06/25,18:50,0.189,0.170,0.284,0.268,0.267,0.142,0.088,south-southeast,6.7,No
2019/06/25,19:00,0.190,0.171,0.285,0.268,0.269,0.143,0.088,south-southeast,6.5,No
2019/06/25,19:10,0.187,0.169,0.284,0.267,0.268,0.141,0.088,south,7.3,No
2019/06/25,19:20,0.191,0.170,0.284,0.267,0.267,0.142,0.087,south,6.5,No
2019/06/25,19:30,0.188,0.170,0.285,0.267,0.268,0.142,0.088,south,7.1,No
2019/06/25,19:40,0.189,0.170,0.284,0.269,0.266,0.142,0.088,south,6.8,No
2019/06/25,19:50,0.189,0.170,0.287,0.267,0.269,0.142,0.088,south,7.0,No
2019/06/25,20:00,0.188,0.170,0.284,0.269,0.266,0.142,0.088,south,6.7,No
2019/06/25,20:10,0.190,0.169,0.286,0.269,0.268,0.142,0.088,south,6.6,No
2019/06/25,20:20,0.188,0.171,0.284,0.267,0.267,0.142,0.088,south,7.0,No
2019/06/25,20:30,0.188,0.170,0.285,0.269,0.268,0.142,0.088,south,7.0,No
2019/06/25,20:40,0.189,0.171,0.286,0.266,0.267,0.142,0.087,south,7.3,No
2019/06/25,20:50,0.189,0.170,0.286,0.269,0.267,0.143,0.088,south,6.6,No
2019/06/25,21:00,0.188,0.171,0.286,0.266,0.267,0.143,0.088,south,5.6,No
2019/06/25,21:10,0.188,0.170,0.286,0.270,0.266,0.142,0.088,south,5.4,No
2019/06/25,21:20,0.190,0.170,0.286,0.268,0.269,0.142,0.089,south,5.6,No
2019/06/25,21:30,0.188,0.171,0.284,0.267,0.266,0.142,0.089,south,4.5,No
2019/06/25,21:40,0.189,0.171,0.287,0.268,0.270,0.142,0.088,south,4.5,No
2019/06/25,21:50,0.189,0.170,0.284,0.267,0.266,0.143,0.089,south,3.8,No
2019/06/25,22:00,0.190,0.171,0.287,0.269,0.270,0.142,0.088,south-southwest,3.9,No
2019/06/25,22:10,0.189,0.171,0.285,0.267,0.268,0.143,0.088,south-southwest,4.1,No
2019/06/25,22:20,0.189,0.172,0.287,0.270,0.269,0.142,0.089,south-southwest,4.5,No
2019/06/25,22:30,0.190,0.170,0.286,0.267,0.268,0.142,0.089,south-southwest,3.9,No
2019/06/25,22:40,0.188,0.171,0.287,0.271,0.267,0.142,0.089,south-southwest,3.9,No
2019/06/25,22:50,0.188,0.169,0.286,0.266,0.268,0.143,0.089,south,4.0,No
2019/06/25,23:00,0.189,0.171,0.287,0.269,0.267,0.143,0.089,south,4.0,No
2019/06/25,23:10,0.189,0.170,0.286,0.268,0.269,0.142,0.088,south,3.7,No
2019/06/25,23:20,0.188,0.171,0.287,0.268,0.267,0.143,0.088,south,3.5,No
2019/06/25,23:30,0.191,0.172,0.285,0.269,0.269,0.142,0.089,south-southwest,4.1,No
2019/06/25,23:40,0.189,0.170,0.286,0.268,0.266,0.141,0.089,south-southwest,4.4,No
2019/06/25,23:50,0.190,0.170,0.286,0.268,0.268,0.142,0.089,south-southwest,5.9,No
